#timestamp,LO_Frequency,Hit,StdDev 
1554422415.1,286046996.7,N
1554422435.9,286046997.8,N
1554422455.7,286046995.1,N
1554422475.5,286046993.6,N
1554422495.4,286046997.6,N
1554422515.2,286046995.7,N
1554422535.0,286046994.9,N
1554422535.9,286046994.9,N
1554422555.8,286046997.2,N
1554422575.6,286046996.7,N
1554422595.5,286046996.7,N
1554422615.3,286046998.3,N
1554422635.1,286047000.4,N
1554422655.9,286046998.6,N
1554422675.7,286046999.4,N
1554422695.5,286046996.9,N
1554422715.4,286046997.3,N
1554422735.2,286046997.6,N
1554422755.1,286046997.6,N
1554422756.0,286046997.6,N
1554422775.8,286046999.3,N
1554422795.6,286047001.2,N
1554422815.5,286047000.5,N
1554422835.3,286046998.2,N
1554422855.1,286046998.4,N
1554422875.9,286047002.3,N
1554422895.7,286047002.3,N
1554422915.6,286047002.6,N
1554422935.4,286047000.1,N
1554422955.2,286047000.3,N
1554422975.1,286047000.8,N
1554422976.0,286047000.8,N
1554422995.8,286046999.9,N
1554423015.6,286046998.7,N
1554423035.5,286047002.4,N
1554423055.3,286046999.9,N
1554423075.1,286047004.4,N
1554423095.9,286047003.7,N
1554423115.7,286047001.7,N
1554423135.6,286047004.4,N
1554423155.4,286047001.5,N
1554423175.2,286047001.9,N
1554423195.1,286047001.3,N
1554423196.0,286047001.3,N
1554423215.8,286047000.0,N
1554423235.6,286046998.8,N
1554423255.5,286046999.4,N
1554423275.3,286046996.5,N
1554423295.2,286046998.3,N
1554423315.9,286046998.6,N
1554423335.7,286047001.6,N
1554423355.6,286047002.5,N
1554423375.4,286047002.8,N
1554423395.2,286047000.2,N
1554423415.1,286047000.3,N
1554423416.0,286047000.3,N
1554423435.8,286047000.1,N
1554423455.7,286047000.7,N
1554423475.5,286046998.4,N
1554423495.3,286047000.5,N
1554423515.2,286046999.5,N
1554423535.0,286046997.7,N
1554423535.9,286046997.7,N
1554423555.8,286046995.1,N
1554423575.6,286046997.0,N
1554423595.4,286046997.4,N
1554423615.3,286046998.6,N
1554423635.1,286047001.1,N
1554423655.8,286046998.6,N
1554423675.7,286047001.2,N
1554423695.5,286046998.7,N
1554423715.4,286046997.6,N
1554423735.2,286046997.8,N
1554423755.0,286046995.4,N
1554423755.9,286046995.4,N
1554423775.8,286046997.5,N
1554423795.6,286046995.1,N
1554423815.4,286046997.1,N
1554423835.3,286046998.5,N
1554423855.1,286047000.7,N
1554423875.9,286046998.3,N
1554423895.7,286046998.8,N
1554423915.5,286046998.6,N
1554423935.4,286046998.8,N
1554423955.2,286047001.0,N
1554423975.0,286047000.4,N
1554423975.9,286047000.4,N
1554423995.8,286047000.7,N
1554424015.6,286047000.1,N
1554424035.5,286047002.7,N
1554424055.3,286047002.6,N
1554424075.1,286047001.5,N
1554424095.9,286046998.9,N
1554424115.7,286046998.7,N
1554424135.5,286047000.9,N
1554424155.4,286046998.3,N
1554424175.2,286046998.5,N
1554424195.0,286046997.5,N
1554424196.0,286046997.5,N
1554424215.8,286046996.9,N
1554424235.6,286046999.5,N
1554424255.5,286046998.7,N
1554424275.3,286046997.4,N
1554424295.1,286046996.1,N
1554424315.9,286046996.9,N
1554424335.7,286046998.3,N
1554424355.6,286046997.0,N
1554424375.4,286046999.2,N
1554424395.2,286046995.0,Y
1554424415.1,286046999.2,P
1554424416.0,286046999.2,P
1554424435.8,286046999.4,P
1554424455.6,286046998.9,Y
1554424475.5,286047001.1,P
1554424495.3,286047000.6,N
1554424515.2,286047002.3,N
1554424535.9,286047000.8,N
1554424555.7,286047001.2,N
1554424575.6,286047000.9,N
1554424595.4,286047000.7,N
1554424615.2,286047000.3,N
1554424635.1,286047002.8,Y
1554424636.0,286047002.8,P
1554424655.8,286047000.7,N
1554424675.7,286047000.3,N
1554424695.5,286046999.9,N
1554424715.3,286047000.0,N
1554424735.2,286047002.1,N
1554424755.0,286047003.2,Y
1554424755.9,286047003.2,P
1554424775.8,286047004.1,P
1554424795.6,286047001.4,N
1554424815.4,286047001.6,N
1554424835.3,286047002.8,N
1554424855.1,286046999.9,N
1554424875.9,286047000.1,N
1554424895.7,286047000.9,N
1554424915.5,286047000.0,N
1554424935.4,286047000.6,N
1554424955.2,286047001.2,N
1554424975.0,286046999.0,N
1554424975.9,286046999.0,N
1554424995.8,286046995.2,Y
1554425015.6,286046996.8,P
1554425035.5,286046999.4,N
1554425055.3,286046998.7,N
1554425075.2,286046996.8,N
1554425095.9,286046995.0,Y
1554425115.7,286046997.2,P
1554425135.6,286046996.9,P
1554425155.4,286046998.9,N
1554425175.3,286046998.5,N
1554425195.1,286047001.2,N
1554425196.0,286047001.2,N
1554425215.8,286047000.9,N
1554425235.7,286047001.8,N
1554425255.5,286047004.4,N
1554425275.3,286047000.2,N
1554425295.2,286047000.3,N
1554425315.0,286047001.2,N
1554425315.9,286047001.2,N
1554425335.8,286046999.7,N
1554425355.6,286046998.7,N
1554425375.4,286046997.2,N
1554425395.3,286046999.2,N
1554425415.1,286046999.0,N
1554425435.8,286046995.4,N
1554425455.7,286046999.4,N
1554425475.5,286046998.6,N
1554425495.4,286046998.5,N
1554425515.2,286046998.3,N
1554425535.0,286047000.8,N
1554425535.9,286047000.8,N
1554425555.1,286046998.4,N
1554425556.0,286046998.4,N
1554425575.8,286046999.5,N
1554425595.6,286046997.4,N
1554425615.5,286046997.5,N
1554425635.3,286046999.1,N
1554425655.1,286046999.6,N
1554425675.9,286046999.0,N
1554425695.7,286047001.0,N
1554425715.6,286047002.6,N
1554425735.4,286047002.8,N
1554425755.2,286047004.3,N
1554425775.1,286047000.3,N
1554425776.0,286047000.3,N
1554425795.8,286047000.0,N
1554425815.6,286047002.7,N
1554425835.5,286047000.2,N
1554425855.3,286047000.8,N
1554425875.2,286047000.5,N
1554425895.9,286047000.6,N
1554425915.7,286047000.8,N
1554425935.6,286046999.8,N
1554425955.4,286047001.2,N
1554425975.3,286046998.1,N
1554425995.1,286047002.7,N
1554425996.0,286047002.7,N
